Regional Weather Roundup
Issued by NWS

Home | Current Version | Previous Version | Graphics & Text | Print | Product List | Glossary On
Versions: 1 2 3 4 5 6 7 8 9 10 11 12 13 14 15 16 17 18 19 20 21 22 23 24 25 26 27 28 29 30 31 32 33 34 35 36 37 38 39 40 41 42 43 44 45 46 47 48 49 50
000
ASUS43 KMPX 200210
RWRMN
WEATHER ROUNDUP FOR MINNESOTA
NATIONAL WEATHER SERVICE TWIN CITIES/CHANHASSEN MN
900 PM CDT TUE SEP 19 2017


NOTE: "FAIR" INDICATES FEW OR NO CLOUDS BELOW 12,000 FEET WITH NO
SIGNIFICANT WEATHER AND/OR OBSTRUCTIONS TO VISIBILITY. N/A MEANS
CURRENT SKY AND/OR WEATHER CONDITIONS ARE NOT AVAILABLE.

MNZ060>063-068>070-200300-
   Twin Cities Metro

CITY           SKY/WX    TMP DP  RH WIND       PRES   REMARKS
TWIN CITIES    MOCLDY    74  63  68 SE14G22   29.70R
ST PAUL        CLOUDY    72  64  76 SE13      29.71R
CRYSTAL        CLOUDY    73  60  63 SE18G25   29.67S
BLAINE         MOCLDY    73  63  68 SE10G23   29.69S
LAKEVILLE      MOCLDY    70  63  78 SE7G17    29.71R
EDEN PRAIRIE   PTCLDY    73  62  68 SE16G22   29.68R
SOUTH ST PAUL  CLOUDY    73  63  71 SE10      29.71R
LAKE ELMO      FAIR      72  63  73 SE9G17    29.73S
$$
MNZ001>005-007-008-013>017-022>024-027-028-200300-
   Northwest Minnesota

CITY           SKY/WX    TMP DP  RH WIND       PRES   REMARKS
BEMIDJI        CLOUDY    68  61  79 SE21G28   29.56S
HALLOCK        CLOUDY    66  64  94 SE37G49   29.36F
ROSEAU           N/A     66  61  82 E6        29.59R
WARROAD        DRIZZLE   64  61  88 E10       29.60S
THIEF RVR FALL TSTM      66  63  90 E20       29.52R
CROOKSTON      TSTM      64  64 100 E21G29    29.40F
FOSSTON        TSTM      64  61  88 E18G25    29.46F
DETROIT LAKES  LGT RAIN  68  63  83 SE21G32   29.53R
MOORHEAD       CLOUDY    72  64  78 SE21G28   29.41F
PARK RAPIDS    MOCLDY    70  62  76 SE25G33   29.55F
MAHNOMEN       LGT RAIN  67  64  87 SE20G33   29.49R
$$
MNZ006-009>011-018-025>026-200300-
   North Central Minnesota

CITY           SKY/WX    TMP DP  RH WIND       PRES   REMARKS
BAUDETTE       CLOUDY    66  60  81 SE13G23   29.62F
FLAG ISLAND    CLOUDY    66  59  77 E10G17    29.61R
INTL FALLS     CLOUDY    65  58  78 SE14G26   29.68F
WASKISH        CLOUDY    66  61  82 E17G23    29.60F
BIG FORK       CLOUDY    64  57  77 SE13G21   29.66F
LONGVILLE      CLOUDY    66  61  82 SE8G18    29.61F
GRAND RAPIDS   CLOUDY    63  58  83 SE10G18   29.69F
CRANE LAKE     CLOUDY    59  55  88 CALM      29.76F
ORR            CLOUDY    61  54  77 SE7G21    29.71F
COOK           CLOUDY    61  55  82 SE7       29.74F
WALKER         MOCLDY    67  61  80 SE14G24   29.58F
$$
MNZ012-019>021-037-200300-
   Northeast Minnesota

CITY           SKY/WX    TMP DP  RH WIND       PRES   REMARKS
DULUTH         CLOUDY    60  57  89 E14       29.77F
ELY            CLOUDY    59  52  77 E12       29.80F
HIBBING        CLOUDY    58  54  86 SE10      29.73F
EVELETH        PTCLDY    60  57  90 E7        29.76F
DULUTH HARBOR  CLOUDY    61  59  94 NE17      29.77F
TWO HARBORS    MOCLDY    63  57  82 E7        29.79F
SILVER BAY     CLOUDY    61  57  88 NE10G17   29.81F
GRAND MARAIS     N/A     62  55  77 NE16G26   29.87S
G MARAIS ARPRT CLOUDY    57  48  72 E8        29.90F
$$
MNZ029>031-032-039>041-046>048-054>057-064-200300-
   West Central Minnesota

CITY           SKY/WX    TMP DP  RH WIND       PRES   REMARKS
FERGUS FALLS   CLOUDY    73  64  73 SE24G30   29.48F
WHEATON        CLOUDY    73  64  73 SE20G26   29.45F
MORRIS         CLEAR     73  66  78 SE24G30   29.48F
ALEXANDRIA     CLOUDY    71  64  78 SE18G28   29.57S
ELBOW LAKE     FAIR      72  65  80 E25G33    29.50F HAZE
WADENA         CLOUDY    70  61  73 SE17G25   29.56R
GLENWOOD       CLOUDY    72  64  78 SE21G30   29.58S
APPLETON       PTCLDY    75  64  69 SE20G26   29.47F
BENSON         CLOUDY    73  64  73 S17G23    29.54F
ORTONVILLE     CLOUDY    75  66  73 NE20G26   29.46F
MADISON        PTCLDY    77  68  73 SE17G29   29.48F
WILLMAR        FAIR      73  66  78 SE13      29.61R
$$
MNZ033>034-036-042>043-049>051-058-059-200300-
   Central Minnesota

CITY           SKY/WX    TMP DP  RH WIND       PRES   REMARKS
ST CLOUD       MOCLDY    72  63  73 SE16G25   29.62F
SAUK CENTRE    CLOUDY    70  63  77 SE14G25   29.59S
PAYNESVILLE    MOCLDY    73  64  74 SE15G29   29.61S
AITKIN         MOCLDY    68  61  77 SE12G21   29.64F
PINE RIVER     CLOUDY    66  59  77 SE17G26   29.64S
BRAINERD       CLOUDY    69  61  75 SE13G23   29.62F
STAPLES        PTCLDY    70  61  73 SE14G23   29.59R
LONG PRAIRIE   MOCLDY    68  61  77 E15G23    29.59S
LITTLE FALLS   MOCLDY    70  55  60 SE15G22   29.62S
LITCHFIELD     PTCLDY    73  64  73 SE17G24   29.62F
BUFFALO        MOCLDY    73  60  65 SE14G23   29.66F
MAPLE LAKE     MOCLDY    73  64  74 SE8G16    29.65F
HUTCHINSON     CLOUDY    72  65  78 SE16G22   29.63F
$$
MNZ037-044-045-052-053-200300-
   East Central Minnesota

CITY           SKY/WX    TMP DP  RH WIND       PRES   REMARKS
PRINCETON      MOCLDY    72  64  78 SE12G22   29.66F
MORA           CLOUDY    68  61  77 SE12G17   29.70F
CAMBRIDGE      MOCLDY    73  61  64 SE10G20   29.68F
RUSH CITY      CLOUDY    70  62  75 SE10G16   29.71S
MOOSE LAKE     CLOUDY    61  55  82 NE5       29.71F
HINCKLEY       FAIR      70  63  78 E8        29.71F
CLOQUET        CLOUDY    61  55  82 E8        29.75F
MCGREGOR       PTCLDY    63  59  88 E14       29.69F
$$
MNZ071>073-080-081-089-090-097-098-200300-
   Southwest Minnesota

CITY           SKY/WX    TMP DP  RH WIND       PRES   REMARKS
MONTEVIDEO     CLOUDY    75  66  73 S18G24    29.53F
GRANITE FALLS  CLOUDY    76  67  74 SE13G20   29.57F
CANBY          PTCLDY    76  67  75 SE18G25   29.49F
MARSHALL       CLOUDY    76  68  76 S21       29.54F
REDWOOD FALLS  CLOUDY    74  65  73 SE18G28   29.59R
OLIVIA         PTCLDY    73  66  78 SE13G26   29.60R
PIPESTONE      CLOUDY    73  66  78 S14G22    29.55F
WINDOM         PTCLDY    73  64  73 SE17G24   29.62R
WORTHINGTON    CLOUDY    74  67  78 SE17      29.61F
JACKSON        CLOUDY    73  64  73 SE17G23   29.65R
TRACY          CLOUDY    75  69  82 S15G23    29.57F
SLAYTON        CLOUDY    73  67  79 SE15      29.60S
$$
MNZ065>067-074>077-082>085-091>093-200300-
   South Central Minnesota

CITY           SKY/WX    TMP DP  RH WIND       PRES   REMARKS
MANKATO        PTCLDY    73  64  73 SE21G26   29.66S
NEW ULM        CLOUDY    73  64  73 SE17G23   29.62S
ST JAMES       CLOUDY    73  64  73 SE20G30   29.64R
FAIRMONT       PTCLDY    73  66  78 SE23G29   29.65R
GLENCOE        CLOUDY    73  66  80 SE14G20   29.64F
FARIBAULT      CLOUDY    72  61  68 SE16G25   29.71S
OWATONNA       CLOUDY    72  63  73 SE15G24   29.72S
WASECA         CLOUDY    72  63  73 SE14G22   29.70F
ALBERT LEA     PTCLDY    73  64  73 SE15G22   29.72S
$$
MNZ078>079-086>088-094>096-200300-
   Southeast Minnesota

CITY           SKY/WX    TMP DP  RH WIND       PRES   REMARKS
ROCHESTER      CLOUDY    69  62  78 SE12      29.78R
RED WING       CLOUDY    73  61  64 SE15      29.73S
STANTON        CLOUDY    73  62  68 SE12      29.71R
DODGE CENTER   CLOUDY    70  61  73 SE12G20   29.76R
WINONA         CLOUDY    70  63  78 SE6       29.79R
AUSTIN         CLOUDY    72  63  73 SE10G17   29.75R
PRESTON        CLOUDY    69  61  76 SE12G17   29.80R
$$
ABBREVIATIONS USED IN REMARKS
   TC - TEMPERATURES IN CELSIUS
  WCI - WIND CHILL INDEX
   HX - HEAT INDEX
  VSB - VISIBILITY
$$



USA.gov is the U.S. government's official web portal to all federal, state and local government web resources and services.